Wind_Speed
9 10 11 14 14 14 15 15 16 17 18 19 20 20 20 20 20 21 21 22 23 23 24 23 23 23 22 19 21 20 19 18 18 19 19 19 19 22 24 24 27 31 32 30 32 32 35
9 10 11 13 13 14 15 15 16 17 18 19 20 21 21 22 22 22 23 23 23 23 23 23 22 23 22 21 19 17 16 14 12 13 16 17 17 20 25 26 26 30 31 31 29 28 32
9 10 12 13 14 14 15 16 17 18 19 19 20 21 22 22 22 21 22 23 24 24 23 23 24 23 23 21 14 11 11 16 21 19 18 16 15 16 21 24 19 23 34 34 25 12 19
9 11 12 13 14 15 16 16 17 19 20 20 20 21 21 21 22 22 23 25 25 25 24 25 22 24 18 14 12 19 22 17 11 9 8 10 11 15 20 24 27 28 31 17 27 26 14
10 11 13 14 14 15 16 16 18 19 20 21 21 21 21 21 23 24 25 25 24 23 23 21 23 16 15 14 20 15 10 8 9 11 11 15 20 21 22 25 32 24 25 33 29 20 33
10 11 12 13 14 15 16 17 19 20 21 22 23 23 23 24 26 26 27 25 24 25 20 24 16 18 15 13 7 8 10 14 11 11 19 27 27 20 18 19 15 25 35 31 26 25 30
10 12 12 13 14 15 16 18 19 21 22 23 25 26 26 26 27 27 26 25 25 22 21 18 16 10 9 8 9 9 14 14 18 28 28 20 17 14 16 18 22 29 35 38 34 34 37
10 11 12 12 14 15 17 18 20 22 23 24 25 27 26 26 26 26 25 22 20 20 20 14 8 7 9 9 15 19 18 22 29 25 18 17 13 12 18 23 26 29 32 35 34 26 37
11 12 13 14 15 16 18 19 21 22 24 26 27 28 26 26 26 23 21 20 19 19 15 5 4 7 10 16 23 26 31 27 23 23 25 22 12 19 24 27 31 29 27 30 36 41 36
12 12 12 14 15 17 18 20 23 25 27 29 30 28 27 27 25 23 21 20 19 20 4 3 5 7 12 22 20 31 27 24 24 26 16 5 14 23 26 26 27 25 25 32 36 34 23
12 13 14 15 16 17 19 21 24 27 30 33 31 26 25 25 24 22 21 19 20 14 3 7 10 13 22 28 25 30 28 28 33 19 17 12 16 18 18 20 22 26 26 31 30 26 25
14 14 14 16 18 20 21 24 26 29 32 30 27 24 23 22 21 21 20 20 18 5 1 8 12 17 28 29 26 27 32 34 24 17 3 12 8 13 19 16 17 20 28 18 9 10 3
14 15 16 17 18 20 23 25 28 30 28 26 24 24 23 23 20 19 19 17 7 0 7 7 14 28 29 25 20 25 36 39 28 15 23 5 10 15 15 23 19 20 23 7 6 5 3
14 14 16 18 20 22 25 28 29 25 24 24 23 23 22 21 20 19 15 15 2 6 10 16 22 26 19 17 18 26 27 22 24 27 15 12 9 17 20 16 21 19 13 3 4 3 8
14 15 17 19 21 23 25 27 26 24 23 22 22 21 22 18 18 17 15 6 4 8 12 17 19 12 12 10 20 19 20 15 19 28 15 9 8 12 15 13 20 17 19 14 7 12 3
14 15 17 20 21 23 26 27 26 25 22 22 21 21 18 18 18 14 16 10 8 11 14 17 11 8 12 20 16 13 9 9 15 21 15 11 7 13 17 12 21 14 16 10 7 3 5
14 15 17 19 24 28 27 24 23 22 22 22 21 21 18 18 18 16 13 9 10 12 14 13 14 12 15 16 15 6 4 8 14 16 15 13 6 15 12 11 19 22 20 10 5 6 3
15 15 19 23 27 26 24 22 21 21 22 22 21 18 17 20 14 18 15 13 12 13 15 13 13 10 13 14 8 2 4 7 13 11 15 14 5 15 9 7 11 16 17 12 5 5 4
16 18 21 24 25 23 24 23 19 20 21 21 20 18 18 16 14 17 15 13 12 15 14 12 11 12 11 10 3 5 5 8 11 11 14 11 5 9 9 6 12 13 17 13 4 2 5
19 21 23 23 19 19 20 21 21 21 20 21 20 15 19 12 19 18 15 12 14 13 13 14 12 10 11 4 2 6 10 6 8 10 8 4 5 10 9 16 11 4 9 13 13 5 11
18 22 23 19 18 19 21 22 21 20 20 20 19 15 17 18 18 18 17 15 16 13 11 11 10 11 8 2 4 3 2 4 2 10 12 11 7 14 11 6 7 9 6 10 15 12 5
17 21 20 15 18 22 23 24 23 20 19 19 18 19 20 18 18 16 14 13 12 13 12 10 10 9 8 7 3 3 1 4 5 7 11 14 15 15 9 7 12 12 5 9 20 22 17
21 22 19 22 25 25 26 26 24 22 21 19 17 18 19 19 18 17 16 14 13 12 9 9 9 7 7 7 6 5 6 2 3 8 11 13 19 15 5 10 8 8 8 9 22 23 24
24 21 25 26 28 28 26 26 23 23 21 19 18 19 20 19 17 14 14 13 11 11 9 9 10 7 4 6 5 5 6 5 5 7 8 13 19 9 9 11 2 6 6 15 26 16 25
25 25 27 27 28 27 25 23 22 21 20 19 18 19 21 18 16 15 12 12 12 10 9 9 9 9 4 4 4 2 4 9 9 10 11 15 17 6 6 10 10 9 7 21 27 25 25
24 24 22 25 28 25 21 20 21 19 18 18 19 21 20 18 13 11 11 12 11 10 11 12 11 7 3 4 3 1 2 3 3 5 7 13 15 11 8 4 3 6 13 25 31 18 7
21 19 19 23 22 21 17 18 18 17 18 18 20 21 20 16 12 10 9 9 8 11 11 11 9 6 5 6 5 4 3 3 3 5 9 15 15 13 12 5 8 14 18 30 10 16 32
15 17 20 19 17 17 15 16 16 16 16 17 20 20 18 17 10 8 9 7 10 10 10 11 9 5 2 6 5 5 4 4 4 9 7 9 11 6 7 5 5 16 29 26 25 29 35
22 18 18 16 15 14 14 14 14 14 15 17 20 19 18 13 9 8 7 8 12 12 11 11 8 5 3 4 4 5 4 5 6 5 9 6 11 12 6 14 20 23 28 22 26 32 30
Wind_Direction
11 7 1 358 356 357 356 354 351 350 350 348 346 343 339 335 333 329 325 323 322 321 321 321 320 318 318 316 311 309 303 299 298 297 294 291 290 288 287 288 286 285 294 287 285 290 288
3 359 357 356 352 353 353 352 350 348 348 345 342 341 339 338 336 333 329 327 325 325 324 323 322 320 316 312 313 308 306 309 310 308 301 297 294 294 292 291 290 290 288 290 293 296 295
355 352 352 350 350 352 353 352 349 346 344 341 340 340 339 339 337 339 337 334 331 328 326 324 322 319 316 316 311 311 314 311 306 303 300 304 304 301 296 300 293 296 296 296 304 312 290
346 347 349 349 350 352 352 350 346 343 341 340 341 341 339 336 335 334 330 327 325 324 323 321 320 316 311 311 314 321 319 319 321 330 323 322 321 312 306 304 298 299 299 300 298 308 283
339 343 347 348 349 350 350 347 344 342 342 341 341 341 340 338 336 334 333 330 329 326 324 322 320 317 319 324 323 318 322 331 332 327 320 315 313 307 304 305 303 304 293 299 308 288 283
337 340 343 346 348 348 347 345 343 344 344 343 340 338 337 338 340 339 335 332 329 327 323 324 323 324 319 320 311 324 333 327 321 312 308 313 316 314 309 304 301 296 297 297 298 296 281
332 335 340 343 345 344 344 343 344 344 344 343 343 341 336 334 333 334 334 334 334 329 324 319 321 325 316 334 328 325 321 310 317 316 320 324 319 312 305 291 281 284 287 291 292 293 293
325 330 333 337 341 342 341 343 345 346 345 343 342 339 339 339 338 337 339 335 330 326 320 321 326 338 334 337 322 316 316 310 317 325 330 323 303 298 295 295 295 294 295 296 297 281 306
322 327 332 335 341 342 341 341 340 339 340 340 342 342 339 339 337 335 331 332 329 324 316 310 358 334 326 322 319 311 316 320 323 325 328 318 290 294 293 298 297 302 310 309 311 316 316
317 321 325 330 336 339 337 336 338 338 338 339 339 339 339 337 334 332 335 335 332 327 263 329 345 320 318 325 319 316 321 330 326 332 344 316 301 304 304 304 318 325 313 315 313 321 308
314 318 321 325 331 333 334 337 337 337 338 337 336 335 334 333 334 335 337 336 335 333 3 324 321 317 317 322 316 310 323 321 335 342 343 329 320 326 333 344 333 323 328 318 306 291 285
312 315 319 323 329 331 333 335 335 336 337 337 337 337 335 333 332 335 337 339 336 329 192 305 308 307 321 320 323 318 323 326 337 327 344 339 347 339 5 349 353 339 344 332 331 309 246
310 315 318 320 325 327 330 332 334 334 336 338 335 333 332 332 335 337 338 338 324 295 311 292 300 313 318 320 325 326 331 336 11 9 357 28 320 341 350 358 6 360 352 331 355 1 309
310 315 318 320 325 329 331 333 335 341 337 338 335 333 332 335 337 336 336 336 273 288 305 301 311 313 312 327 330 331 333 356 10 11 0 8 357 14 15 20 356 359 355 345 299 306 285
311 316 320 322 327 331 331 336 332 336 336 335 332 333 333 335 335 334 341 335 307 300 297 304 312 306 305 313 324 330 340 23 12 5 20 1 324 16 18 5 11 355 355 327 266 287 257
313 319 322 326 327 327 328 330 334 337 338 336 334 335 336 334 338 338 346 334 315 306 310 318 323 294 302 319 333 345 1 349 357 0 4 352 310 8 6 23 21 12 357 345 323 333 315
314 320 327 326 327 329 327 333 335 337 338 340 341 339 337 341 340 344 341 338 326 320 324 324 313 301 312 328 333 348 343 324 342 353 346 356 343 342 13 4 4 10 18 16 320 346 330
316 320 323 323 329 331 335 339 340 340 341 343 342 341 339 339 340 344 344 342 330 322 323 320 318 316 320 327 334 334 329 345 337 346 1 355 331 325 342 355 326 358 23 23 4 340 353
312 313 316 322 327 334 339 341 344 342 344 341 341 338 340 342 341 346 345 336 331 324 323 318 318 323 330 327 320 272 293 322 323 333 352 336 352 337 341 316 323 354 4 29 24 263 16
314 312 312 325 330 338 345 344 342 344 344 342 341 338 337 336 338 340 338 326 322 325 320 323 321 321 324 247 242 278 297 307 316 347 357 7 12 347 293 294 295 333 11 19 27 37 316
303 308 316 325 330 332 344 341 339 342 341 339 341 338 339 331 335 336 337 332 329 329 326 326 321 315 310 282 287 292 347 9 29 54 35 4 335 339 331 338 319 281 300 350 15 9 311
293 299 315 321 329 329 335 335 336 339 339 339 337 338 335 333 332 330 330 328 325 325 323 328 325 320 304 293 268 299 267 357 5 22 13 1 345 339 318 299 303 264 287 347 357 348 342
295 297 305 307 314 319 326 331 330 335 338 336 336 334 338 335 334 330 332 329 328 331 331 326 333 329 303 280 273 252 222 279 331 334 338 339 345 336 297 323 298 255 299 342 350 338 331
283 290 301 305 309 314 325 325 331 336 335 331 335 338 341 335 330 325 325 326 330 331 327 331 339 326 291 271 264 232 235 265 294 300 299 335 336 327 296 331 297 243 260 343 348 327 316
281 286 293 298 307 316 318 321 329 329 329 333 335 342 340 336 329 329 330 331 328 331 329 327 323 323 291 261 228 214 259 237 263 248 268 329 352 334 325 301 271 238 301 343 344 322 308
275 278 290 297 300 313 314 321 322 325 328 332 337 341 340 338 330 326 334 334 330 338 334 333 334 325 269 220 193 211 171 216 237 268 266 323 347 351 334 291 268 265 317 335 331 295 291
263 275 281 287 300 304 312 314 318 324 330 332 336 340 340 340 331 333 335 330 332 337 333 327 328 298 281 214 205 216 202 258 266 297 316 337 350 339 334 287 275 297 319 328 326 305 324
265 280 288 291 296 298 304 312 316 322 326 330 337 340 343 342 335 331 337 341 338 338 342 335 328 320 254 206 214 220 237 254 280 308 324 335 347 329 323 283 290 304 317 333 322 324 321
253 272 280 292 295 296 304 309 311 321 322 332 335 341 345 347 341 336 351 346 339 338 340 339 329 318 236 225 227 223 247 273 279 299 319 315 332 331 306 292 309 309 319 320 317 321 323
Height
3179 3177 3176 3174 3173 3171 3169 3166 3164 3162 3160 3157 3154 3152 3149 3146 3143 3140 3137 3134 3131 3129 3126 3123 3120 3117 3115 3113 3112 3108 3106 3104 3103 3101 3100 3099 3098 3096 3095 3094 3092 3089 3089 3089 3086 3087 3084
3179 3177 3176 3174 3172 3170 3168 3166 3163 3161 3159 3156 3153 3150 3146 3144 3140 3137 3134 3131 3128 3124 3121 3118 3116 3113 3111 3109 3106 3104 3102 3100 3099 3097 3095 3095 3094 3091 3088 3087 3086 3082 3081 3080 3081 3081 3078
3178 3177 3175 3174 3172 3169 3167 3165 3163 3160 3157 3154 3151 3148 3145 3141 3138 3135 3131 3128 3124 3120 3117 3114 3112 3109 3105 3105 3100 3099 3098 3097 3095 3093 3091 3091 3090 3089 3084 3082 3079 3076 3072 3072 3074 3074 3071
3177 3176 3174 3173 3171 3169 3166 3164 3161 3158 3155 3152 3149 3146 3142 3139 3135 3132 3128 3124 3120 3117 3113 3110 3107 3104 3100 3098 3097 3097 3096 3094 3091 3089 3088 3087 3086 3085 3081 3077 3072 3070 3066 3064 3066 3065 3064
3176 3175 3173 3172 3170 3168 3165 3162 3159 3156 3153 3151 3148 3144 3140 3137 3133 3129 3125 3121 3116 3113 3109 3105 3102 3099 3099 3098 3096 3093 3091 3090 3088 3087 3085 3084 3083 3081 3078 3072 3066 3063 3059 3058 3060 3061 3054
3175 3174 3172 3170 3168 3166 3163 3160 3158 3155 3152 3149 3145 3142 3138 3134 3130 3126 3122 3118 3113 3110 3106 3103 3099 3101 3097 3094 3091 3090 3088 3087 3086 3084 3084 3081 3078 3074 3072 3068 3064 3057 3053 3053 3053 3049 3045
3174 3172 3170 3169 3167 3164 3162 3159 3156 3153 3150 3146 3143 3139 3135 3132 3127 3124 3119 3115 3113 3110 3106 3101 3097 3093 3090 3091 3089 3088 3087 3084 3083 3080 3076 3075 3073 3069 3066 3065 3062 3057 3052 3047 3045 3044 3037
3172 3171 3169 3167 3165 3163 3160 3157 3154 3151 3148 3144 3140 3136 3132 3128 3123 3119 3115 3111 3107 3106 3099 3096 3092 3090 3090 3089 3086 3082 3085 3083 3078 3074 3073 3074 3068 3065 3063 3060 3057 3052 3047 3041 3037 3037 3037
3171 3170 3168 3167 3164 3161 3159 3156 3152 3149 3145 3142 3138 3133 3129 3125 3120 3116 3111 3108 3104 3100 3098 3094 3093 3091 3089 3088 3082 3078 3079 3077 3073 3070 3069 3066 3064 3060 3058 3054 3050 3047 3043 3038 3034 3029 3032
3170 3168 3166 3164 3162 3159 3157 3153 3150 3146 3143 3139 3134 3130 3125 3121 3119 3113 3109 3105 3101 3097 3094 3096 3093 3090 3089 3085 3078 3074 3073 3073 3069 3066 3064 3062 3059 3057 3053 3049 3044 3041 3041 3036 3032 3030 3026
3168 3167 3165 3162 3160 3157 3153 3150 3147 3143 3139 3134 3130 3126 3122 3116 3113 3109 3106 3101 3098 3095 3096 3096 3091 3090 3084 3088 3084 3072 3069 3066 3064 3062 3063 3061 3054 3051 3048 3046 3043 3040 3035 3031 3028 3024 3022
3167 3165 3162 3160 3158 3155 3151 3148 3144 3140 3135 3130 3126 3122 3118 3114 3111 3107 3104 3100 3097 3095 3093 3093 3090 3085 3085 3079 3073 3069 3063 3063 3064 3059 3059 3056 3054 3051 3048 3047 3043 3037 3030 3023 3020 3018 3020
3164 3163 3160 3157 3154 3152 3148 3145 3141 3136 3132 3127 3122 3118 3115 3111 3109 3105 3101 3098 3096 3091 3094 3090 3086 3081 3077 3074 3072 3068 3061 3054 3056 3056 3054 3056 3054 3052 3047 3042 3040 3037 3032 3025 3024 3022 3021
3162 3160 3158 3155 3152 3149 3145 3141 3137 3133 3128 3124 3119 3116 3112 3109 3106 3102 3099 3097 3093 3093 3091 3088 3084 3078 3075 3072 3067 3066 3064 3060 3058 3057 3055 3054 3050 3050 3048 3045 3043 3038 3035 3034 3032 3027 3020
3159 3157 3155 3152 3149 3146 3142 3137 3132 3129 3125 3120 3116 3112 3109 3106 3103 3100 3099 3096 3093 3091 3089 3085 3082 3076 3072 3072 3070 3065 3061 3062 3062 3060 3059 3056 3055 3051 3048 3045 3043 3038 3035 3033 3028 3022 3020
3156 3154 3152 3150 3147 3143 3138 3134 3129 3125 3122 3118 3114 3110 3107 3104 3100 3099 3096 3095 3092 3089 3086 3083 3081 3078 3073 3069 3067 3064 3062 3062 3061 3061 3060 3058 3053 3051 3048 3045 3043 3039 3036 3031 3029 3029 3021
3153 3151 3149 3147 3144 3140 3135 3130 3127 3122 3119 3116 3112 3107 3104 3101 3099 3096 3094 3092 3089 3087 3085 3084 3079 3077 3072 3070 3066 3064 3064 3064 3061 3059 3059 3057 3055 3052 3048 3045 3041 3039 3035 3032 3030 3029 3026
3151 3149 3146 3144 3140 3136 3132 3128 3125 3121 3117 3113 3109 3105 3102 3099 3098 3093 3092 3088 3087 3083 3080 3078 3075 3073 3071 3070 3067 3066 3065 3062 3060 3058 3056 3055 3054 3051 3049 3047 3044 3042 3037 3034 3031 3030 3028
3148 3145 3142 3139 3136 3132 3129 3127 3122 3119 3114 3111 3106 3102 3098 3095 3093 3091 3089 3086 3083 3080 3077 3073 3073 3069 3067 3066 3067 3066 3064 3062 3061 3058 3056 3053 3053 3051 3048 3048 3045 3041 3037 3035 3033 3029 3028
3145 3142 3139 3136 3133 3130 3126 3123 3119 3115 3111 3108 3105 3100 3096 3092 3089 3085 3082 3082 3079 3076 3072 3070 3068 3066 3065 3063 3062 3063 3062 3061 3059 3059 3056 3054 3052 3051 3051 3046 3044 3041 3038 3035 3032 3030 3028
3141 3138 3135 3132 3129 3127 3123 3120 3116 3112 3108 3106 3101 3098 3095 3092 3085 3082 3079 3077 3075 3073 3071 3068 3065 3064 3063 3061 3060 3061 3062 3061 3060 3058 3056 3054 3051 3048 3045 3043 3042 3039 3036 3034 3031 3030 3027
3136 3135 3132 3128 3126 3124 3120 3116 3112 3109 3105 3103 3101 3096 3092 3088 3085 3080 3076 3074 3073 3071 3070 3068 3066 3064 3062 3059 3060 3059 3061 3061 3060 3057 3055 3053 3051 3047 3043 3042 3039 3036 3034 3032 3029 3025 3023
3132 3130 3128 3125 3121 3118 3116 3113 3109 3105 3102 3100 3097 3095 3090 3086 3080 3079 3077 3072 3069 3067 3066 3064 3062 3061 3061 3060 3056 3057 3057 3059 3059 3057 3055 3053 3049 3046 3043 3042 3037 3035 3032 3030 3027 3022 3019
3127 3126 3124 3121 3116 3113 3111 3109 3105 3102 3099 3097 3094 3091 3087 3084 3078 3075 3073 3071 3068 3066 3064 3062 3059 3058 3057 3058 3057 3056 3056 3057 3057 3056 3055 3052 3048 3045 3042 3040 3038 3031 3030 3028 3024 3019 3015
3122 3121 3119 3116 3112 3109 3106 3104 3100 3097 3095 3093 3090 3088 3085 3079 3076 3072 3070 3069 3068 3067 3065 3062 3058 3055 3055 3054 3055 3054 3053 3055 3055 3054 3053 3050 3047 3045 3043 3039 3034 3030 3029 3027 3022 3017 3011
3115 3114 3113 3110 3106 3104 3102 3099 3097 3094 3091 3089 3086 3083 3080 3078 3073 3071 3067 3065 3065 3062 3060 3059 3056 3053 3053 3052 3053 3052 3052 3052 3053 3053 3051 3049 3046 3045 3041 3038 3032 3027 3027 3025 3020 3013 3010
3109 3108 3106 3103 3102 3101 3098 3095 3092 3089 3087 3086 3083 3080 3077 3072 3070 3067 3066 3066 3063 3060 3059 3058 3055 3053 3052 3052 3052 3053 3052 3051 3051 3050 3048 3046 3043 3042 3038 3036 3031 3027 3025 3022 3020 3018 3007
3104 3104 3101 3099 3098 3096 3094 3092 3089 3087 3084 3082 3079 3077 3075 3070 3067 3065 3063 3062 3061 3059 3056 3056 3056 3052 3051 3052 3051 3052 3052 3051 3050 3048 3047 3045 3043 3040 3037 3035 3031 3027 3023 3021 3016 3009 3003
3097 3098 3098 3096 3094 3093 3091 3088 3086 3084 3082 3078 3076 3072 3070 3068 3067 3066 3062 3061 3060 3057 3056 3053 3053 3051 3051 3051 3051 3050 3050 3050 3049 3048 3046 3046 3044 3042 3040 3035 3030 3024 3019 3015 3010 3005 2999